Starlink 30981

operational
NORAD ID: 58494 Int'l Des: 2023-186 Owner: SPXS Country: US Constellation: starlink
LEOCIRCULAR

Starlink 30981について

説明を読み込み中...

リアルタイム位置

3D地球を読み込み中...

次回通過

高度履歴

Altitude vs Time

uPlot chart will show altitude changes over time

軌道要素

1 58494U 23186X 25354.10110491 -.00000576 00000-0 -27550-4 0 9999
2 58494 43.0039 139.5362 0001568 261.1283 98.9382 15.02532563113874
Epoch: Dec 20, 2025 • Age: 6 hours

現在のステータス

高度 559.1 km
速度 7.58 km/s
衛星直下点 -0.78°S, 83.99°W
打ち上げ日 Dec 3, 2023
運用期間 2 years
タイプ internet

技術仕様

分類 Payload
質量 730.00 kg
乾燥質量 700.00 kg
総質量 730.00 kg
長さ 0.30 m
直径 4.10 m
スパン 29.00 m
形状 Box + pan
製造者 SPXS
バスタイプ Starlink V2M
フェーズステータス In Orbit
所有者/国 SPXS/US

大規模コンステレーション

Loading constellations...